This demonstration page uses our WeatherBlox Daily Observations layout. Learn more.

Left ArrowRight Arrow

Hourly Observations for July 25, 2015

Temp ( °F °C ) Dew Point ( °F °C ) Humidity (%) Winds ( mph kmh ) Pressure ( in mb ) Visibility ( mi km ) Precip ( " mm )
12:51 am 00:51 Clear 83 28.3 57 13.9 41 41 NW 6 9 29.83 1010 10 16.0934 N/A
1:51 am 01:51 Clear 83 28.3 57 13.9 41 41 SSW 5 7 29.83 1010 10 16.0934 N/A
2:51 am 02:51 Clear 79 26.1 63 17.2 58 58 SE 7 11 29.83 1010 10 16.0934 N/A
3:51 am 03:51 Clear 77 25 63 17.2 62 62 SE 6 9 29.84 1011 10 16.0934 N/A
4:51 am 04:51 Partly Cloudy 77 25 63 17.2 62 62 ESE 7 11 29.87 1012 10 16.0934 N/A
5:51 am 05:51 Mostly Sunny 77 25 62 16.7 60 60 ESE 3 6 29.88 1012 10 16.0934 N/A
6:51 am 06:51 Sunny 81 27.2 61 16.1 51 51 SE 9 15 29.89 1012 10 16.0934 N/A
7:51 am 07:51 Sunny 83 28.3 60 15.6 46 46 E 7 11 29.9 1012 10 16.0934 N/A
8:51 am 08:51 Sunny 88 31.1 58 14.4 36 36 N N/A 29.88 1012 10 16.0934 N/A
9:51 am 09:51 Sunny 90 32.2 52 11.1 27 27 N N/A 29.87 1012 10 16.0934 N/A
10:51 am 10:51 Sunny 95 35 52 11.1 23 23 NW 12 19 29.85 1011 10 16.0934 N/A
11:51 am 11:51 Sunny 94 34.4 70 21.1 46 46 W 14 22 29.92 1013 10 16.0934 N/A
12:51 pm 12:51 Sunny 81 27 73 22.8 78 78 W 14 22 29.99 1016 10 16.0934 N/A
1:51 pm 13:51 Sunny 102 38.9 50 10 17 17 WNW 17 28 29.76 1008 10 16.0934 N/A
2:51 pm 14:51 Mostly Sunny 101 38.3 50 10 18 18 W 13 20 29.74 1007 10 16.0934 N/A
3:51 pm 15:51 Mostly Sunny 101 38.3 48 8.9 17 17 WNW 14 22 29.72 1006 10 16.0934 N/A
4:51 pm 16:51 Mostly Sunny 100 37.8 48 8.9 17 17 NW 13 20 29.7 1006 10 16.0934 N/A
5:51 pm 17:51 Sunny 99 37.2 47 8.3 17 17 WNW 18 30 29.69 1005 10 16.0934 N/A
6:51 pm 18:51 Sunny 77 25 60 15.6 56 56 WNW 13 20 29.99 1016 10 16.0934 N/A
7:51 pm 19:51 Clear 93 33.9 46 7.8 20 20 WNW 13 20 29.72 1006 10 16.0934 N/A
8:51 pm 20:51 Clear 90 32.2 45 7.2 21 21 NNW 10 17 29.74 1007 10 16.0934 N/A
9:51 pm 21:51 Clear 87 30.6 45 7.2 23 23 NW 8 13 29.88 1012 10 16.0934 N/A
10:51 pm 22:51 Clear 82 27.8 73 22.8 74 74 WNW 7 11 29.89 1012 10 16.0934 N/A
11:51 pm 23:51 Clear 81 27.2 43 6.1 26 26 NW 8 13 29.74 1007 10 16.0934 N/A

Powered by AerisWeather